Weather History for KPEQ - September, 2012

Change the Weather History Date:

Friday, September 21, 2012

  Actual Average (WUND) Record (WUND)
Temperature  
Mean Temperature 77 °F -  
Max Temperature 96 °F - - (-1)
Min Temperature 59 °F - - (-1)
Cooling Degree Days 12    
Growing Degree Days 27 (Base 50)    
Moisture  
Dew Point 42 °F    
Average Humidity 36    
Maximum Humidity 68    
Minimum Humidity 11    
Precipitation  
Precipitation 0.00 in - - ()
Sea Level Pressure  
Sea Level Pressure 29.99 in    
Wind  
Wind Speed 5 mph (East)    
Max Wind Speed 10 mph    
Max Gust Speed -    
Visibility 10 miles    
Events      
Averages and records for this station are not official NWS values.
T = Trace of Precipitation, MM = Missing Value Source: NWS Daily Summary

Daily Weather History Graph

Daily Weather History Graph

Search for Another Location

Airport or City:

Trip Planner

Search our weather history database for the weather conditions in past years. The results will help you decide how hot, cold, wet, or windy it might be!

Date:

Astronomy

Sep. 21, 2012 Rise Set
Actual Time 7:42 AM CDT 7:51 PM CDT
Civil Twilight 7:17 AM CDT 8:15 PM CDT
Nautical Twilight 6:49 AM CDT 8:43 PM CDT
Astronomical Twilight 6:20 AM CDT 9:12 PM CDT
Moon 1:42 PM CDT (9/21) No Moon Set
Length of Visible Light 12h 57m
Length of Day
12h 09m
Waxing Crescent, 37% of the Moon is Illuminated
Sep 21
Waxing Crescent
Sep 22
First Quarter
Sep 29
Full
Oct 8
Last Quarter
Oct 15
New

Hourly Weather History & Observations

Time (CDT) Temp. Dew Point Humidity Pressure Visibility Wind Dir Wind Speed Gust Speed Precip Events Conditions
12:15 AM 74.8 °F 43.5 °F 33% 30.00 in 10.0 mi SSE 8.1 mph - N/A   Clear
12:35 AM 72.0 °F 43.9 °F 36% 29.99 in 10.0 mi SSE 6.9 mph - N/A   Clear
12:55 AM 68.9 °F 44.8 °F 42% 29.99 in 10.0 mi SSE 6.9 mph - N/A   Clear
1:15 AM 66.4 °F 45.5 °F 47% 29.99 in 10.0 mi SE 6.9 mph - N/A   Clear
1:35 AM 64.9 °F 45.7 °F 50% 29.99 in 10.0 mi SE 6.9 mph - N/A   Clear
1:55 AM 64.8 °F 46.4 °F 51% 29.99 in 10.0 mi ESE 5.8 mph - N/A   Clear
2:15 AM 63.7 °F 46.4 °F 53% 29.98 in 10.0 mi ESE 5.8 mph - N/A   Clear
2:35 AM 63.5 °F 46.4 °F 54% 29.99 in 10.0 mi NE 3.5 mph - N/A   Clear
2:55 AM 64.8 °F 46.6 °F 52% 29.99 in 10.0 mi Calm Calm - N/A   Clear
3:15 AM 63.9 °F 46.6 °F 53% 29.99 in 10.0 mi Calm Calm - N/A   Clear
3:35 AM 62.8 °F 46.6 °F 55% 29.98 in 10.0 mi ESE 3.5 mph - N/A   Clear
3:55 AM 60.3 °F 46.8 °F 61% 29.98 in 10.0 mi East 5.8 mph - N/A   Clear
4:15 AM 62.1 °F 47.3 °F 58% 29.98 in 10.0 mi ENE 6.9 mph - N/A   Clear
4:55 AM 62.2 °F 47.8 °F 59% 29.98 in 10.0 mi Calm Calm - N/A   Clear
5:15 AM 62.6 °F 48.4 °F 60% 29.98 in 10.0 mi East 4.6 mph - N/A   Clear
5:35 AM 63.7 °F 48.9 °F 59% 29.99 in 10.0 mi North 3.5 mph - N/A   Clear
5:55 AM 64.0 °F 48.9 °F 58% 29.99 in 10.0 mi Calm Calm - N/A   Clear
6:15 AM 61.9 °F 48.9 °F 62% 30.00 in 10.0 mi NNW 4.6 mph - N/A   Clear
6:35 AM 63.0 °F 49.5 °F 61% 30.00 in 10.0 mi NE 5.8 mph - N/A   Clear
6:55 AM 61.9 °F 49.5 °F 64% 30.00 in 10.0 mi ENE 8.1 mph - N/A   Clear
7:15 AM 61.5 °F 49.3 °F 64% 30.00 in 10.0 mi ENE 5.8 mph - N/A   Clear
7:35 AM 60.8 °F 49.3 °F 66% 30.00 in 10.0 mi ENE 5.8 mph - N/A   Clear
7:55 AM 60.1 °F 49.1 °F 67% 30.01 in 10.0 mi ENE 4.6 mph - N/A   Clear
8:15 AM 59.9 °F 49.3 °F 68% 30.02 in 10.0 mi NE 4.6 mph - N/A   Clear
8:35 AM 61.9 °F 49.8 °F 65% 30.02 in 10.0 mi Calm Calm - N/A   Clear
8:55 AM 65.3 °F 49.8 °F 57% 30.03 in 10.0 mi East 4.6 mph - N/A   Clear
9:15 AM 66.9 °F 49.1 °F 53% 30.03 in 10.0 mi East 4.6 mph - N/A   Clear
9:35 AM 68.5 °F 48.7 °F 49% 30.03 in 10.0 mi SE 3.5 mph - N/A   Clear
9:55 AM 70.7 °F 48.7 °F 46% 30.03 in 10.0 mi Calm Calm - N/A   Clear
10:15 AM 73.4 °F 48.9 °F 42% 30.04 in 10.0 mi Calm Calm - N/A   Clear
10:35 AM 75.7 °F 48.4 °F 38% 30.04 in 10.0 mi Calm Calm - N/A   Clear
10:55 AM 78.8 °F 43.0 °F 28% 30.05 in 10.0 mi Calm Calm - N/A   Clear
11:15 AM 80.6 °F 42.3 °F 26% 30.04 in 10.0 mi NW 4.6 mph - N/A   Clear
11:35 AM 82.2 °F 42.1 °F 24% 30.04 in 10.0 mi NNW 3.5 mph - N/A   Clear
11:55 AM 83.7 °F 41.4 °F 22% 30.04 in 10.0 mi North 4.6 mph - N/A   Clear
12:15 PM 85.5 °F 38.7 °F 19% 30.03 in 10.0 mi Calm Calm - N/A   Clear
12:35 PM 86.9 °F 37.2 °F 17% 30.03 in 10.0 mi NE 3.5 mph - N/A   Clear
12:55 PM 88.0 °F 35.8 °F 16% 30.02 in 10.0 mi Calm Calm - N/A   Clear
1:15 PM 89.8 °F 36.0 °F 15% 30.02 in 10.0 mi NW 4.6 mph - N/A   Clear
1:35 PM 90.7 °F 36.1 °F 15% 30.00 in 10.0 mi West 5.8 mph - N/A   Clear
1:55 PM 91.2 °F 35.8 °F 14% 29.99 in 10.0 mi NNW 4.6 mph - N/A   Clear
2:35 PM 91.9 °F 34.2 °F 13% 29.98 in 10.0 mi Calm Calm - N/A   Clear
2:55 PM 92.5 °F 34.5 °F 13% 29.97 in 10.0 mi Calm Calm - N/A   Clear
3:15 PM 94.1 °F 34.7 °F 12% 29.96 in 10.0 mi North 3.5 mph - N/A   Clear
3:35 PM 94.6 °F 34.3 °F 12% 29.96 in 10.0 mi NNE 5.8 mph - N/A   Clear
3:55 PM 94.6 °F 34.0 °F 12% 29.95 in 10.0 mi ENE 3.5 mph - N/A   Clear
4:15 PM 95.4 °F 33.1 °F 11% 29.95 in 10.0 mi NE 8.1 mph - N/A   Clear
4:35 PM 94.6 °F 32.5 °F 11% 29.94 in 10.0 mi Calm Calm - N/A   Clear
4:55 PM 95.9 °F 33.1 °F 11% 29.93 in 10.0 mi ENE 6.9 mph - N/A   Clear
5:15 PM 95.2 °F 31.6 °F 11% 29.93 in 10.0 mi NE 4.6 mph - N/A   Clear
5:35 PM 94.8 °F 32.0 °F 11% 29.93 in 10.0 mi ENE 4.6 mph - N/A   Clear
5:55 PM 95.0 °F 32.2 °F 11% 29.93 in 10.0 mi ENE 9.2 mph - N/A   Clear
6:15 PM 94.5 °F 32.2 °F 11% 29.93 in 10.0 mi East 5.8 mph - N/A   Clear
6:35 PM 93.6 °F 32.5 °F 12% 29.93 in 10.0 mi SE 8.1 mph - N/A   Clear
6:55 PM 92.7 °F 33.3 °F 12% 29.94 in 10.0 mi ESE 6.9 mph - N/A   Clear
7:15 PM 90.9 °F 33.4 °F 13% 29.95 in 10.0 mi ESE 5.8 mph - N/A   Clear
7:55 PM 83.8 °F 37.8 °F 19% 29.94 in 10.0 mi ESE 5.8 mph - N/A   Clear
8:15 PM 80.6 °F 39.0 °F 23% 29.95 in 10.0 mi East 6.9 mph - N/A   Clear
9:15 PM 78.6 °F 37.8 °F 23% 29.96 in 10.0 mi Calm Calm - N/A   Clear
9:35 PM 75.2 °F 39.4 °F 27% 29.97 in 10.0 mi ESE 10.4 mph - N/A   Clear
9:55 PM 74.3 °F 41.0 °F 30% 29.98 in 10.0 mi SE 8.1 mph - N/A   Clear
10:15 PM 72.1 °F 41.5 °F 33% 29.98 in 10.0 mi ESE 8.1 mph - N/A   Clear
10:55 PM 75.4 °F 41.4 °F 29% 29.99 in 10.0 mi SSE 8.1 mph - N/A   Clear
11:15 PM 73.8 °F 41.9 °F 32% 29.99 in 10.0 mi ESE 5.8 mph - N/A   Clear
11:35 PM 68.9 °F 43.2 °F 39% 30.00 in 10.0 mi ESE 6.9 mph - N/A   Clear
11:55 PM 68.2 °F 43.7 °F 41% 30.00 in 10.0 mi ESE 9.2 mph - N/A   Clear